Home > Weather > Husum > Past weeks

Flag for Germany Weather for the Past 2 Weeks in Husum, Schleswig-Holstein, Germany

Now
59 °F

Refreshingly cool.


Feels Like: 56 °F
Forecast: 45 / 67 °F
Wind: 14 mph from Northeast

Location: Schleswig-Jagel

Current Time: May 5, 2016 at 7:07:43 PM

Latest Report: May 5, 2016 at 6:20 PM


Visibility: 4 mi

Pressure: 30.27 "Hg

Humidity: 45%

Dew Point: 37 °F

Location of HusumLocation

Historic Weather in Husum — Graph

°F

Husum Temperature Yesterday

Maximum temperature yesterday: 57 °F (at 2:20 PM)
Minimum temperature yesterday: 37 °F (at 4:20 AM)
Average temperature yesterday: 48 °F

High & Low Weather Summary for the Past Weeks

 TemperatureHumidityPressure
High64 °F (May 2, 2:20 PM)100% (Apr 21, 5:20 AM)30.39 "Hg (Apr 21, 5:20 AM)
Low30 °F (Apr 24, 4:20 AM)29% (May 5, 1:20 PM)29.33 "Hg (Apr 26, 5:58 AM)
Average43 °F77%29.97 "Hg
* Reported Apr 20 5:20 PM — May 5 5:20 PM, Husum, Weather by CustomWeather, © 2016

Note: Actual official high and low records may vary slightly from our data, if they occured in-between our weather recording intervals... More about our weather records

Advertising

Husum Weather History for the Previous 24 Hours

Scroll right to see more
 ConditionsComfort  
Time TempWeatherWind HumidityBarometerVisibility
5:20 PM
Thu, May 5
61 °FRefreshingly cool.14 mph45%30.30 "Hg4 mi
4:20 PM61 °FRefreshingly cool.12 mph42%30.30 "Hg4 mi
3:20 PM61 °FRefreshingly cool.8 mph36%30.33 "Hg4 mi
2:20 PM61 °FRefreshingly cool.7 mph31%30.33 "Hg5 mi
1:20 PM61 °FRefreshingly cool.9 mph29%30.36 "Hg4 mi
12:20 PM59 °FRefreshingly cool.3 mph34%30.36 "Hg4 mi
11:20 AM57 °FRefreshingly cool.6 mph36%30.39 "HgN/A
10:20 AM57 °FRefreshingly cool.7 mph41%30.39 "HgN/A
9:20 AM54 °FCool.5 mph51%30.39 "HgN/A
8:20 AM50 °FCool.3 mph62%30.39 "Hg6 mi
7:20 AM45 °FQuite cool.5 mph76%30.39 "Hg5 mi
6:20 AM39 °FChilly.2 mph87%30.39 "Hg4 mi
5:20 AM39 °FChilly.6 mph93%30.39 "Hg4 mi
4:20 AM39 °FChilly.2 mph93%30.39 "Hg1 mi
3:20 AM39 °FChilly.2 mph93%30.39 "Hg4 mi
2:20 AM41 °FQuite cool.5 mph93%30.39 "Hg3 mi
1:20 AM41 °FQuite cool.2 mph87%30.39 "Hg4 mi
12:20 AM41 °FQuite cool.3 mph87%30.39 "Hg4 mi
11:20 PM
Wed, May 4
46 °FCool.No wind76%30.39 "Hg4 mi
10:51 PM46 °FPassing clouds.1 mph76%30.39 "HgN/A
10:20 PM48 °FPassing clouds.1 mph71%30.39 "HgN/A
9:20 PM48 °FPassing clouds.6 mph71%30.39 "HgN/A
8:20 PM52 °FPassing clouds.8 mph67%30.39 "HgN/A
7:20 PM57 °FPassing clouds.10 mph51%30.36 "HgN/A
Weather by CustomWeather, © 2016

See weather overviewHow to use our weather pages